SL-14 DEB, 45348

Orbit data source: Space-Track

SL-14 DEB, 45348 is space debris in LEO originally from a launch on Thu, 15 Aug 1991 UTC launched from the Plesetsk Missile And Space Complex (PKMTR). Debris objects in space refer to the collection of defunct objects orbiting the Earth. Examples of debris include non-operational satellites, rocket bodies, and fragments generated from explosions, collisions, or faulty payload assembly.

Loading next visibility...
Identifier
45348, 1991-056CH
Orbit
LEO
Country
Flag of CISCIS
Related business
Manufacturer
Unknown
Mission
Spacecraft
Bus & Motor
Unknown
Mass
Unknown
Launch date (UTC)
1991-08-15 (35 years ago)
Launch vehicle
Unknown
Launch site
Plesetsk Missile And Space Complex (PKMTR)
Object type
Payload
Rocket body
Debris
Shape & HBR
Unknown shape, 0.1 m
Radar Cross Section
Medium (>0.1 m² and <1 m²)

Expand to show TLE details & history
Last TLE update: 1 week ago

TLE from 1 week ago
0 SL-14 DEB
1 45348U 91056CH  26152.27480899  .00000067  00000-0  13707-3 0  9992
2 45348  82.5653 146.8238 0022373 125.7836 234.5371 13.19270838300859
Epoch: 2026-06-01T06:35Z
TLE epoch observation values (Epoch: 2026-06-01T06:35:43.496Z)
Latitude
-0.00011°
Longitude
158.12808°
Altitude
1,200.165 km
Speed
7.249 km/s
True Right ascension
09h 47m 17s
True Declination
0° 00' 00"
Sunlit
Object was in daylight at epoch
Visualization orbit readout
Latitude
Unknown
Longitude
Unknown
Altitude
Unknown
Speed
Unknown
Apparent Right ascension
Unknown
Apparent Declination
Unknown
Sunlit
N/A
Visualization observer readout
Local Sidereal Time
18:44:05
Azimuth
Unknown
Elevation
Unknown
Doppler factor
Unknown
Orbital elements
Apogee altitude
1,201.668 km
Perigee altitude
1,167.827 km
Semi-major axis
7,562.884 km
Eccentricity
0.00224
Inclination
82.5653°
RAAN
146.8238°
Arg. of periapsis
125.7836°
True anomaly
234.32862°
Mean anomaly
234.5371°
Eccentric anomaly
234.43283°
Mean motion
3.29999 °/min
Orbital period
109.09 mins
BSTAR
0.00013707
Loading maneuver chart data...
Computing Atmospheric mass density...
Loading historical data...
Loading historical data...
Loading historical data...
Loading historical data...
Loading historical data...
Loading historical data...
Loading historical data...

Documentation

Showing up to 5 results
|